CCM51 LFML-LFKJ

Flight info

Callsign CCM51
Flight time 0h 42m
Altitude 23000
Route TINOT Z154 RUBAS
Aircraft A320/M-SDE3FGHIRWY/LB1

Departure

Time 2026-04-29 14:37
Airport Marseille Provence Airport (LFML)

Arrival

Time 2026-04-29 15:19
Airport Ajaccio Napoléon Bonaparte airport (LFKJ)
Time Latitude Longitude Altitude Speed Heading
2026-04-29 14:35 43.43130 5.22490 62 ft 0 kts 198°
2026-04-29 14:36 43.43124 5.22487 62 ft 3 kts 198°
2026-04-29 14:36 43.43080 5.22467 62 ft 10 kts 198°
2026-04-29 14:36 43.43063 5.22374 65 ft 14 kts 296°
2026-04-29 14:36 43.43158 5.22229 54 ft 37 kts 314°
2026-04-29 14:37 43.43529 5.21704 43 ft 112 kts 314°
2026-04-29 14:37 43.44209 5.20731 24 ft 167 kts 307°
2026-04-29 14:37 43.45029 5.19582 598 ft 167 kts 310°
2026-04-29 14:37 43.45861 5.18420 1213 ft 173 kts 312°
2026-04-29 14:38 43.46710 5.17201 1799 ft 182 kts 313°
2026-04-29 14:38 43.47548 5.15767 2135 ft 203 kts 289°
2026-04-29 14:38 43.47636 5.13783 2481 ft 220 kts 249°
2026-04-29 14:38 43.46808 5.12036 3123 ft 220 kts 213°
2026-04-29 14:39 43.45438 5.11194 3865 ft 216 kts 187°
2026-04-29 14:39 43.43964 5.10723 4594 ft 223 kts 189°
2026-04-29 14:39 43.42438 5.10168 5360 ft 228 kts 193°
2026-04-29 14:39 43.40898 5.09583 6181 ft 230 kts 193°
2026-04-29 14:40 43.39339 5.08992 7007 ft 232 kts 195°
2026-04-29 14:40 43.37786 5.08417 7707 ft 241 kts 194°
2026-04-29 14:40 43.36068 5.07823 8108 ft 265 kts 194°
2026-04-29 14:40 43.34218 5.07207 8764 ft 277 kts 194°
2026-04-29 14:41 43.32342 5.06593 9641 ft 281 kts 194°
2026-04-29 14:41 43.30408 5.05964 10378 ft 291 kts 197°
2026-04-29 14:41 43.28355 5.05285 10660 ft 314 kts 195°
2026-04-29 14:41 43.26170 5.04555 10928 ft 336 kts 195°
2026-04-29 14:42 43.23821 5.03948 11482 ft 349 kts 184°
2026-04-29 14:42 43.21403 5.04541 12162 ft 362 kts 160°
2026-04-29 14:42 43.19356 5.06545 12893 ft 375 kts 133°
2026-04-29 14:42 43.17935 5.09577 13669 ft 380 kts 120°
2026-04-29 14:43 43.16713 5.12826 14327 ft 385 kts 118°
2026-04-29 14:43 43.15552 5.16119 14964 ft 389 kts 117°
2026-04-29 14:43 43.14377 5.19510 15557 ft 394 kts 117°
2026-04-29 14:43 43.13193 5.22907 16221 ft 397 kts 116°
2026-04-29 14:44 43.11919 5.26196 16922 ft 397 kts 124°
2026-04-29 14:44 43.10138 5.29102 17486 ft 399 kts 139°
2026-04-29 14:44 43.07883 5.31335 18173 ft 399 kts 152°
2026-04-29 14:44 43.05336 5.32792 18762 ft 399 kts 166°
2026-04-29 14:45 43.02591 5.33451 19287 ft 400 kts 179°
2026-04-29 14:45 42.99815 5.33511 19830 ft 402 kts 182°
2026-04-29 14:45 42.96989 5.33416 20410 ft 404 kts 184°
2026-04-29 14:45 42.94197 5.33228 20968 ft 406 kts 185°
2026-04-29 14:46 42.91361 5.32992 21597 ft 407 kts 185°
2026-04-29 14:46 42.88521 5.32748 22115 ft 409 kts 184°
2026-04-29 14:46 42.85682 5.32517 22620 ft 412 kts 184°
2026-04-29 14:46 42.82805 5.32307 22938 ft 414 kts 184°
2026-04-29 14:47 42.79888 5.32116 23005 ft 423 kts 184°
2026-04-29 14:47 42.76946 5.32124 23003 ft 429 kts 174°
2026-04-29 14:47 42.74026 5.33054 23005 ft 433 kts 161°
2026-04-29 14:47 42.71354 5.34967 23002 ft 436 kts 145°
2026-04-29 14:48 42.69138 5.37754 23007 ft 440 kts 131°
2026-04-29 14:48 42.67472 5.41251 23004 ft 442 kts 117°
2026-04-29 14:48 42.66375 5.45170 23007 ft 445 kts 110°
2026-04-29 14:48 42.65373 5.49150 23003 ft 444 kts 110°
2026-04-29 14:49 42.64380 5.53090 23002 ft 444 kts 110°
2026-04-29 14:49 42.63372 5.57076 23008 ft 445 kts 110°
2026-04-29 14:49 42.62366 5.61053 23011 ft 445 kts 110°
2026-04-29 14:49 42.61355 5.65053 23018 ft 445 kts 109°
2026-04-29 14:50 42.60359 5.68983 23018 ft 445 kts 110°
2026-04-29 14:50 42.59349 5.72965 23013 ft 445 kts 110°
2026-04-29 14:50 42.58338 5.76948 23009 ft 445 kts 110°
2026-04-29 14:50 42.57327 5.80929 23006 ft 445 kts 110°
2026-04-29 14:51 42.56321 5.84893 22999 ft 445 kts 110°
2026-04-29 14:51 42.55317 5.88829 22998 ft 445 kts 110°
2026-04-29 14:51 42.54295 5.92828 23001 ft 445 kts 110°
2026-04-29 14:51 42.53289 5.96755 22999 ft 445 kts 110°
2026-04-29 14:52 42.52272 6.00723 22996 ft 445 kts 109°
2026-04-29 14:52 42.51253 6.04694 23001 ft 445 kts 110°
2026-04-29 14:52 42.50231 6.08675 23001 ft 445 kts 110°
2026-04-29 14:52 42.49208 6.12645 22996 ft 445 kts 110°
2026-04-29 14:53 42.48192 6.16575 22996 ft 445 kts 110°
2026-04-29 14:53 42.47164 6.20548 22999 ft 445 kts 110°
2026-04-29 14:53 42.46139 6.24512 22997 ft 445 kts 110°
2026-04-29 14:53 42.45123 6.28436 22994 ft 445 kts 110°
2026-04-29 14:54 42.44097 6.32395 22996 ft 445 kts 110°
2026-04-29 14:54 42.43067 6.36355 22998 ft 445 kts 110°
2026-04-29 14:54 42.42033 6.40309 23000 ft 444 kts 110°
2026-04-29 14:54 42.41011 6.44212 23000 ft 444 kts 110°
2026-04-29 14:55 42.39973 6.48169 22999 ft 444 kts 110°
2026-04-29 14:55 42.38941 6.52115 23000 ft 444 kts 110°
2026-04-29 14:55 42.37910 6.56055 22998 ft 444 kts 110°
2026-04-29 14:55 42.36944 6.60016 22998 ft 444 kts 108°
2026-04-29 14:56 42.36094 6.64041 23000 ft 444 kts 105°
2026-04-29 14:56 42.35337 6.68038 22999 ft 444 kts 104°
2026-04-29 14:56 42.34598 6.72124 22997 ft 444 kts 104°
2026-04-29 14:56 42.33862 6.76177 22998 ft 444 kts 104°
2026-04-29 14:57 42.33102 6.80241 22999 ft 444 kts 105°
2026-04-29 14:57 42.32326 6.84244 22997 ft 444 kts 105°
2026-04-29 14:57 42.31518 6.88308 22990 ft 444 kts 106°
2026-04-29 14:57 42.30702 6.92346 22989 ft 444 kts 106°
2026-04-29 14:58 42.29893 6.96325 22990 ft 444 kts 106°
2026-04-29 14:58 42.29075 7.00363 22988 ft 444 kts 106°
2026-04-29 14:58 42.28263 7.04395 22989 ft 445 kts 106°
2026-04-29 14:58 42.27728 7.07057 22989 ft 445 kts 106°
2026-04-29 14:59 42.26644 7.12448 22989 ft 445 kts 106°
2026-04-29 14:59 42.25828 7.16489 22991 ft 444 kts 106°
2026-04-29 14:59 42.25019 7.20501 22863 ft 441 kts 106°
2026-04-29 14:59 42.24215 7.24478 22595 ft 437 kts 106°
2026-04-29 15:00 42.23414 7.28426 22329 ft 435 kts 106°
2026-04-29 15:00 42.22614 7.32357 22053 ft 433 kts 106°
2026-04-29 15:00 42.21817 7.36272 21803 ft 432 kts 106°
2026-04-29 15:00 42.21031 7.40124 21554 ft 430 kts 106°
2026-04-29 15:01 42.20225 7.44056 21289 ft 428 kts 106°
2026-04-29 15:01 42.19444 7.47874 21040 ft 427 kts 106°
2026-04-29 15:01 42.18650 7.51737 20660 ft 422 kts 106°
2026-04-29 15:01 42.17874 7.55510 20078 ft 419 kts 106°
2026-04-29 15:02 42.17095 7.59296 19510 ft 415 kts 105°
2026-04-29 15:02 42.16322 7.63047 18953 ft 412 kts 105°
2026-04-29 15:02 42.15813 7.65514 18608 ft 410 kts 105°
2026-04-29 15:02 42.15049 7.69207 18074 ft 407 kts 105°
2026-04-29 15:03 42.14287 7.72879 17526 ft 403 kts 105°
2026-04-29 15:03 42.13291 7.77653 16840 ft 397 kts 106°
2026-04-29 15:03 42.12545 7.81230 16303 ft 393 kts 106°
2026-04-29 15:03 42.11807 7.84772 15775 ft 390 kts 106°
2026-04-29 15:04 42.11074 7.88287 15229 ft 388 kts 106°
2026-04-29 15:04 42.10592 7.90597 14873 ft 386 kts 106°
2026-04-29 15:04 42.09871 7.94046 14301 ft 385 kts 106°
2026-04-29 15:04 42.08895 7.98689 13495 ft 384 kts 106°
2026-04-29 15:05 42.08175 8.02115 12896 ft 381 kts 106°
2026-04-29 15:05 42.07686 8.04438 12489 ft 380 kts 106°
2026-04-29 15:05 42.06734 8.08950 11689 ft 376 kts 107°
2026-04-29 15:05 42.06016 8.12338 11078 ft 373 kts 107°
2026-04-29 15:06 42.05316 8.15646 10710 ft 364 kts 107°
2026-04-29 15:06 42.04853 8.17828 10628 ft 353 kts 107°
2026-04-29 15:06 42.04194 8.20936 10500 ft 338 kts 107°
2026-04-29 15:06 42.03360 8.24876 10347 ft 321 kts 107°
2026-04-29 15:07 42.02760 8.27706 10218 ft 309 kts 107°
2026-04-29 15:07 42.02177 8.30450 9983 ft 303 kts 107°
2026-04-29 15:07 42.01797 8.32234 9920 ft 299 kts 107°
2026-04-29 15:07 42.01221 8.34925 9688 ft 301 kts 107°
2026-04-29 15:08 42.00641 8.37629 9280 ft 299 kts 107°
2026-04-29 15:08 41.99869 8.41223 8740 ft 296 kts 107°
2026-04-29 15:08 41.99494 8.42961 8656 ft 289 kts 107°
2026-04-29 15:08 41.98946 8.45500 8524 ft 277 kts 107°
2026-04-29 15:09 41.98254 8.48708 8353 ft 262 kts 107°
2026-04-29 15:09 41.97751 8.51010 8232 ft 251 kts 110°
2026-04-29 15:09 41.97243 8.52400 8131 ft 239 kts 128°
2026-04-29 15:09 41.96053 8.53882 8014 ft 236 kts 153°
2026-04-29 15:10 41.94509 8.54537 7888 ft 232 kts 178°
2026-04-29 15:10 41.92932 8.54257 7766 ft 229 kts 202°
2026-04-29 15:10 41.91595 8.53144 7638 ft 227 kts 226°
2026-04-29 15:10 41.90721 8.51394 7514 ft 227 kts 250°
2026-04-29 15:11 41.90455 8.49311 7393 ft 229 kts 273°
2026-04-29 15:11 41.90808 8.47231 7274 ft 231 kts 288°
2026-04-29 15:11 41.91563 8.45298 6744 ft 243 kts 311°
2026-04-29 15:11 41.93005 8.44036 6343 ft 262 kts 343°
2026-04-29 15:12 41.94839 8.43948 6101 ft 276 kts 16°
2026-04-29 15:12 41.96464 8.45271 5856 ft 277 kts 51°
2026-04-29 15:12 41.97252 8.47579 5605 ft 274 kts 85°
2026-04-29 15:12 41.96960 8.50034 5410 ft 261 kts 119°
2026-04-29 15:13 41.95913 8.51931 5271 ft 247 kts 133°
2026-04-29 15:13 41.94802 8.53644 5156 ft 239 kts 133°
2026-04-29 15:13 41.93707 8.55323 5026 ft 237 kts 133°
2026-04-29 15:13 41.92790 8.57113 4901 ft 238 kts 112°
2026-04-29 15:14 41.92534 8.59297 4784 ft 240 kts 85°
2026-04-29 15:14 41.93061 8.61421 4653 ft 242 kts 58°
2026-04-29 15:14 41.94261 8.62984 4527 ft 244 kts 31°
2026-04-29 15:14 41.95847 8.63820 4180 ft 246 kts 18°
2026-04-29 15:15 41.97472 8.64516 3877 ft 243 kts 17°
2026-04-29 15:15 41.99016 8.65404 3451 ft 244 kts 37°
2026-04-29 15:15 42.00077 8.67123 3211 ft 237 kts 65°
2026-04-29 15:15 42.00397 8.69226 3018 ft 229 kts 93°
2026-04-29 15:16 42.00161 8.71297 2998 ft 214 kts 100°
2026-04-29 15:16 41.99897 8.73170 3006 ft 196 kts 101°
2026-04-29 15:16 41.99658 8.74902 2774 ft 185 kts 102°
2026-04-29 15:16 41.99411 8.76557 2476 ft 172 kts 102°
2026-04-29 15:17 41.99185 8.78076 2190 ft 162 kts 102°
2026-04-29 15:17 41.98957 8.79548 1817 ft 160 kts 104°
2026-04-29 15:17 41.98724 8.80980 1566 ft 154 kts 114°
2026-04-29 15:17 41.98122 8.82086 1234 ft 142 kts 148°
2026-04-29 15:18 41.97233 8.82584 1034 ft 136 kts 176°
2026-04-29 15:18 41.96306 8.82527 819 ft 131 kts 197°
2026-04-29 15:18 41.95449 8.82094 650 ft 132 kts 204°
2026-04-29 15:18 41.94604 8.81607 468 ft 131 kts 204°
2026-04-29 15:19 41.93777 8.81115 272 ft 132 kts 205°
2026-04-29 15:19 41.92957 8.80601 64 ft 128 kts 206°
2026-04-29 15:19 41.92243 8.80153 21 ft 80 kts 204°
2026-04-29 15:19 41.91934 8.79961 20 ft 38 kts 205°
2026-04-29 15:20 41.91711 8.79823 19 ft 33 kts 205°
2026-04-29 15:20 41.91510 8.79697 19 ft 31 kts 205°
2026-04-29 15:20 41.91330 8.79584 21 ft 20 kts 205°
2026-04-29 15:20 41.91243 8.79486 22 ft 14 kts 255°
2026-04-29 15:21 41.91266 8.79420 21 ft 0 kts 325°
2026-04-29 15:21 41.91279 8.79408 21 ft 8 kts 326°
2026-04-29 15:22 41.91359 8.79358 30 ft 11 kts 339°
2026-04-29 15:22 41.91473 8.79343 26 ft 22 kts 19°
2026-04-29 15:22 41.91644 8.79447 31 ft 26 kts 25°
2026-04-29 15:22 41.91774 8.79529 26 ft 16 kts 25°
2026-04-29 15:23 41.91855 8.79577 29 ft 11 kts 13°
2026-04-29 15:23 41.91903 8.79542 28 ft 3 kts 344°
2026-04-29 15:23 41.91904 8.79541 26 ft 0 kts 344°